Location: Newark
(35.7833°N, 139.8000°E)
Time: 02:06:37
(UTC+00:00)

OTV 5 (USA 277) - Pass Details

Date: 29 September 2019
Orbit: 310 x 324 km, 54.5° (Epoch: 08 October)

Event Time Altitude Azimuth Distance (km) Brightness Sun altitude
Exits shadow 19:45:01 - 206° (SSW) 1,640 ? -10.8°
Reaches altitude 10° 19:46:02 10° 201° (SSW) 1,229 ? -10.6°
Maximum altitude 19:48:37 39° 130° (SE) 498 ? -10.1°
Drops below altitude 10° 19:51:12 10° 59° (ENE) 1,234 ? -9.6°
Sets 19:53:14 0° 51° (NE) 2,068 ? -9.2°
